Regional Weather Roundup
Issued by NWS

Home | Current Version | Previous Version | Graphics & Text | Print | Product List | Glossary Off
Versions: 1 2 3 4 5 6 7 8 9 10 11 12 13 14 15 16 17 18 19 20 21 22 23 24 25 26 27 28 29 30 31 32 33 34 35 36 37 38 39 40 41 42 43 44 45 46 47 48 49 50

858
ASUS43 KMKX 311400
RWRWI

WISCONSIN REGIONAL WEATHER ROUNDUP
NATIONAL WEATHER SERVICE MILWAUKEE/SULLIVAN WI
900 AM CDT WED AUG 31 2016

NOTE: "FAIR" INDICATES FEW OR NO CLOUDS BELOW 12,000 FEET WITH NO
SIGNIFICANT WEATHER AND/OR OBSTRUCTIONS TO VISIBILITY.

WIZ001-002-006>008-014>016-023>028-311500-
NORTHWEST WISCONSIN

CITY           SKY/WX    TMP DP  RH WIND       PRES   REMARKS
SUPERIOR ARPT  SUNNY     57  54  89 SW3       30.21S
ASHLAND        SUNNY     63  57  81 NW5       30.19F
HAYWARD        SUNNY     56  54  93 CALM      30.21S
SIREN          SUNNY     57  53  88 CALM      30.21S
CUMBERLAND     SUNNY     59  54  82 N3        30.21S
RICE LAKE      SUNNY     57  56  96 CALM      30.22S
CHETEK         NOT AVBL
LADYSMITH      SUNNY     59  54  84 N3        30.21S
EAU CLAIRE     NOT AVBL
MENOMONIE      SUNNY     59  56  90 CALM      30.20S
NEW RICHMOND   SUNNY     58  58 100 CALM      30.21S
OSCEOLA        MOSUNNY   56  56 100 NW3       30.24S
$$

WIZ003>005-009-010-017-018-311500-
NORTH CENTRAL WISCONSIN

CITY           SKY/WX    TMP DP  RH WIND       PRES   REMARKS
MANITOWISH WTR NOT AVBL
ARBOR VITAE    SUNNY     59  57  91 N7        30.19S
WOODRUFF       SUNNY     59  57  91 N7        30.19S
RHINELANDER    SUNNY     62  57  83 N6        30.19R
EAGLE RIVER    SUNNY     60  58  93 N6        30.18S
LAND O LAKES   SUNNY     62  57  83 NW5       30.19S
PHILLIPS       SUNNY     59  56  90 N5        30.19S
TOMAHAWK       SUNNY     55  55  97 CALM      30.19S
MEDFORD        SUNNY     58  58 100 N3        30.18S
MERRILL        SUNNY     59  57  92 CALM      30.18S
$$

WIZ029-030-035-036-043>047-311500-
CENTRAL WISCONSIN

CITY           SKY/WX    TMP DP  RH WIND       PRES   REMARKS
WAUSAU         SUNNY     60  53  77 N5        30.16R
MOSINEE        SUNNY     57  55  94 NW6       30.17S
MARSHFIELD     SUNNY     64  54  69 N3        30.17R
STEVENS POINT  SUNNY     57  52  84 CALM      30.16F
WAUPACA        MOSUNNY   64  56  77 CALM      30.16R
WAUTOMA        MOSUNNY   65  55  70 CALM      30.16S
WISC RAPIDS    SUNNY     64  55  72 N5        30.18R
CAMP DOUGLAS   NOT AVBL
$$

WIZ011>013-019>022-031-037>040-048>050-311500-
NORTHEAST WISCONSIN

CITY           SKY/WX    TMP DP  RH WIND       PRES   REMARKS
ANTIGO         SUNNY     56  54  94 CALM      30.17S
SHAWANO        SUNNY     60  55  82 CALM      30.14S
OCONTO         NOT AVBL
STURGEON BAY   SUNNY     65  59  81 MISG      30.13R
GREEN BAY      SUNNY     65  58  78 VRB3      30.13S
MANITOWOC      NOT AVBL
APPLETON       MOSUNNY   63  54  72 NW6       30.12S
CLINTONVILLE   SUNNY     61  52  72 N5        30.14S
OSHKOSH        SUNNY     67  54  63 NW6       30.13S
$$

WIZ032>034-041-042-053>061-311500-
SOUTHWEST WISCONSIN

CITY           SKY/WX    TMP DP  RH WIND       PRES   REMARKS
LA CROSSE      SUNNY     64  60  87 NW7       30.17S
SPARTA         MOSUNNY   54  54 100 CALM      30.18S
VIROQUA        SUNNY     64  57  77 N6        30.17S
BOSCOBEL       SUNNY     67  58  72 VRB3      30.15S
PRAIRIE DU CHI SUNNY     64  57  80 CALM      30.15S
PLATTEVILLE    CLOUDY    63  63 100 N8        30.14S
$$

WIZ056-057-062-063-064-067-068-311500-
SOUTH CENTRAL WISCONSIN

CITY           SKY/WX    TMP DP  RH WIND       PRES   REMARKS
REEDSBURG      NOT AVBL
BARABOO/DELLS  SUNNY     62  55  78 N3        30.15S
LONE ROCK      NOT AVBL
MINERAL POINT  CLOUDY    64  63  94 N6        30.14S
MADISON        MOSUNNY   66  61  84 N8        30.13S
MIDDLETON      PTSUNNY   65  63  92 N3        30.14S
WATERTOWN      MOSUNNY   63  57  81 N8        30.12S
MONROE         CLOUDY    64  61  88 N13       30.13R
JANESVILLE     MOSUNNY   68  63  83 N7        30.10S
$$

WIZ051-052-058>065-066-070>072-311500-
SOUTHEAST WISCONSIN

CITY           SKY/WX    TMP DP  RH WIND       PRES   REMARKS
MILWAUKEE      PTSUNNY   70  59  68 N14       30.09S
WAUKESHA       SUNNY     64  55  72 N8        30.13R
MILWAUKEE/TIMM SUNNY     64  55  72 N8        30.11S
RACINE         MOSUNNY   67  59  75 N13       30.10S
BURLINGTON     MOSUNNY   64  58  79 N8        30.10S
KENOSHA        MOSUNNY   68  61  78 NE7       30.09S
FOND DU LAC    SUNNY     67  60  78 N7        30.14R
SHEBOYGAN      SUNNY     68  57  68 N8        30.12R
WEST BEND      CLOUDY    64  55  72 N8        30.12S
JUNEAU         CLOUDY    64  59  86 N7        30.14S
$$

LSZ147-162-311500-
LAKE SUPERIOR

STATION/POSITION TIME  TEMP    WIND        PRES    WAVE
                       AIR SEA DIR/SP/G            HT/PER
                 (UTC) (F)     (DEG/KT/KT) (MB)    (FT/S)
W MID LAKE BUOY  1250   65 67  330/ 10/ 10 1021.1R   1
DEVILS ISLAND    1300   64     330/  8/ 10 1022.3R
PORT WING        1240   56     160/  2/  3 1022.7R
SAXON HARBOR     1300   58     190/  4/  7 1022.0S
$$

LMZ867-665-643>646-311500-
LAKE MICHIGAN

STATION/POSITION TIME  TEMP    WIND        PRES    WAVE
                       AIR SEA DIR/SP/G            HT/PER
                 (UTC) (F)     (DEG/KT/KT) (MB)    (FT/S)
CHAMBERS ISLAND  1300   66     320/  6/  8 1019.6S
N MID LAKE BUOY  1250   66 71  330/ 12/ 14 1018.5R   2/ 4
NORTHPORT PIER   1300   66     340/  9/ 11 1019.3
SISTER BAY       1337   69      10/ 12/ 14   N/A
ALGOMA LAKESHORE 1315          320/ 10/ 11   N/A
KEWAUNEE LAKESHO 1300   63     310/  4/  6 1019.0R
SHEBOYGAN LAKESH 1300   63     340/ 15/ 18 1019.0R
PORT WASHINGTON  1300   67     330/  6/ 10 1020.0
ATWATER BUOY     1300   65      10/ 14/ 17   N/A
MILWAUKEE LAKESH 1310   66     360/ 10/ 13   N/A
S MID LAKE BUOY  1250   71 75   30/ 17/ 21 1016.6R   4/ 6
KENOSHA   LAKESH 1300   67     360/ 13/ 15 1018.3R
$$

TC  - TEMPERATURE IN CELSIUS
VSB - VISIBILITY IN STATUTE MILES
WCI - WIND CHILL INDEX
HX  - HEAT INDEX





USA.gov is the U.S. government's official web portal to all federal, state and local government web resources and services.